This demonstration page uses our WeatherBlox Daily Observations layout. Learn more.

39.92423, -83.80882

Hourly Observations for August 23, 2018

Temp ( °F °C ) Dew Point ( °F °C ) Humidity (%) Winds ( mph kmh ) Pressure ( in mb ) Visibility ( mi km ) Precip ( " mm )
12:56 am 00:56 Clear 56 13.3 54 12.2 93 93 W 5 7 30.12 1020 10 16.0934 0 0
1:56 am 01:56 Clear 56 13.3 54 12.2 93 93 Calm 30.11 1020 10 16.0934 0 0
2:56 am 02:56 Clear 53 11.7 53 11.7 100 100 SSW 3 6 30.12 1020 10 16.0934 0 0
3:56 am 03:56 Clear 53 11.7 53 11.7 100 100 WSW 3 6 30.13 1020 10 16.0934 0 0
4:56 am 04:56 Clear 53 11.7 53 11.7 100 100 Calm 30.13 1020 10 16.0934 0 0
5:56 am 05:56 Clear with Mist and Fog 50 10 50 10 100 100 SW 5 7 30.14 1021 5 8.0467 0 0
6:56 am 06:56 Sunny with Mist and Fog 51 10.6 51 10.6 100 100 W 3 6 30.16 1021 6 9.65604 0 0
7:56 am 07:56 Sunny 55 12.8 55 12.8 100 100 Calm 30.17 1022 9 14.48406 0 0
8:56 am 08:56 Sunny 60 15.6 56 13.3 86 86 WNW 5 7 30.19 1022 10 16.0934 0 0
9:56 am 09:56 Sunny 65 18.3 58 14.4 78 78 N 6 9 30.2 1023 10 16.0934 0 0
10:56 am 10:56 Sunny 69 20.6 57 13.9 66 66 NNW 3 6 30.2 1023 10 16.0934 0 0
11:56 am 11:56 Sunny 71 21.7 54 12.2 55 55 Calm 30.2 1023 10 16.0934 0 0
12:56 pm 12:56 Mostly Cloudy 74 23.3 56 13.3 54 54 Calm 30.19 1022 10 16.0934 0 0
1:56 pm 13:56 Sunny 75 23.9 55 12.8 50 50 SE 8 13 30.18 1022 10 16.0934 0 0
2:56 pm 14:56 Mostly Sunny 75 23.9 54 12.2 48 48 SSE 7 11 30.17 1022 10 16.0934 0 0
3:56 pm 15:56 Mostly Sunny 76 24.4 52 11.1 43 43 Calm 30.16 1021 10 16.0934 0 0
4:56 pm 16:56 Mostly Cloudy 76 24.4 55 12.8 48 48 SW 6 9 30.14 1021 10 16.0934 0 0
5:56 pm 17:56 Sunny 75 23.9 54 12.2 48 48 Calm 30.14 1021 10 16.0934 0 0
6:56 pm 18:56 Sunny 73 22.8 59 15 62 62 S 5 7 30.14 1021 10 16.0934 0 0
7:56 pm 19:56 Sunny 71 21.7 54 12.2 55 55 SE 3 6 30.14 1021 10 16.0934 0 0
8:40 pm 20:40 Hazy 66 19 55 13 68 68 S 3 6 30.12 1020 1.75 2.816345 0 0
8:48 pm 20:48 Hazy 64 18 57 14 78 78 SSE 5 7 30.15 1021 3 4.82802 0 0
8:56 pm 20:56 Clear 64 17.8 57 13.9 78 78 S 5 7 30.15 1021 10 16.0934 0 0
9:56 pm 21:56 Clear 61 16.1 56 13.3 84 84 SSE 6 9 30.16 1022 10 16.0934 0 0
10:56 pm 22:56 Clear 59 15 56 13.3 90 90 Calm 30.17 1022 10 16.0934 0 0
11:56 pm 23:56 Clear 57 13.9 56 13.3 96 96 ESE 3 6 30.16 1021 10 16.0934 0 0

Powered by AerisWeather